KINEIS-1B

Last updated on Mon Sep 21 2026 00:02:54 GMT+0000 (Coordinated Universal Time)

1 60079U 24114A 26263.60595020 .00000392 00000+0 57810-4 0 9998 2 60079 97.9805 287.3318 0003503 127.8792 232.2737 14.80750654121528
UTC large
Height (km)
Speed (km/s)
/
Latitude / Longitude
Inclination (degrees)
Orbital Period (minutes)
Azimuth
Elevation
Range (km)
Doppler Factor

Next 0 passes for location: London (51.5072 / 0.1276)

No passes found over London.
KINEIS-1B